Weather Roundup
Issued by NWS Chicago, IL

Home | Current Version | Previous Version | Graphics & Text | Print | Product List | Glossary On
Versions: 1 2 3 4 5 6 7 8 9 10 11 12 13 14 15 16 17 18 19 20 21 22 23 24 25 26 27 28 29 30 31 32 33 34 35 36 37 38 39 40 41 42 43 44 45 46 47 48 49 50
000
NZUS59 KLOT 200306
HRRLOT

CHICAGO AREA WEATHER ROUNDUP
NATIONAL WEATHER SERVICE CHICAGO/ROMEOVILLE IL
1000 PM CDT SAT APR 19 2014

NOTE: "FAIR" INDICATES FEW OR NO CLOUDS BELOW 12,000 FEET WITH NO
SIGNIFICANT WEATHER AND/OR OBSTRUCTIONS TO VISIBILITY.

* THESE STATIONS ARE NOT UNDER NWS QUALITY CONTROL. THEY ALSO MAY NOT
  REPORT WEATHER SUCH AS PRECIPITATION OR FOG.

ILZ005-006-012>014-019>023-200400-
NORTHEAST ILLINOIS

CITY           SKY/WX    TMP DP  RH WIND       PRES   REMARKS
OHARE          MOCLDY    53  35  50 E6        30.24R
MIDWAY         MOCLDY    56  38  50 SE9       30.25R
AURORA         MOCLDY    54  38  54 SE12      30.22S
LANSING*       PTCLDY    56  35  46 SE10      30.26F
JOLIET*        MOCLDY    57  36  45 SE8       30.24S
WAUKEGAN       MOCLDY    41  33  73 SE7       30.24S
DUPAGE AIRPORT CLOUDY    57  38  48 SE9       30.22S
WHEELING       MOCLDY    49  37  63 SE3       30.25S
KANKAKEE*      PTCLDY    55  40  56 E10       30.26S
MORRIS*        MOCLDY    58  32  37 SE9       30.23R
NORTHERLY IS     N/A     46  39  76 S2          N/A
$$

WIZ051-052-058>065-066-070>072-200400-
SOUTHEAST WISCONSIN

CITY           SKY/WX    TMP DP  RH WIND       PRES   REMARKS
MILWAUKEE      MOCLDY    44  34  67 SE3       30.25S
KENOSHA*       MOCLDY    46  34  62 SE9       30.24S
RACINE*        MOCLDY    47  34  60 S13       30.25S
BURLINGTON     CLOUDY    47  36  63 SW9       30.22S
WAUKESHA       CLOUDY    45  34  65 SE5       30.24S
$$

INZ001>003-010>013-019-020-200400-
NORTHWEST INDIANA

CITY           SKY/WX    TMP DP  RH WIND       PRES   REMARKS
GARY*          PTCLDY    59  35  39 SE10      30.27S
MICHIGAN CITY* NOT AVBL
RENSSELAER*    NOT AVBL
VALPARAISO     PTCLDY    49  34  56 E6        30.29R
$$

LMZ740>746-200400-
SOUTHERN LAKE MICHIGAN

STATION/POSITION TIME  SKY/WX   TEMP WIND        PRES    VSBY
                                AIR  DIR/SP/G
                 (UTC)          (F)  (DEG/KT/KT) (MB)    (MI)
HARRISON CRIB    0300            47  150/ 11/ 14   N/A
BURNHAM HARBOR   0300            46  150/  1/  3   N/A
CALUMET HARBOR   0300            56  120/  7/ 10 1025.1F
BURNS HARBOR     NOT AVBL
MICHIGAN CITY    0300            57  110/  8/ 11   N/A
$$

ABBREVIATIONS USED IN REMARKS
   TC - TEMPERATURE IN CELSIUS
  WCI - WIND CHILL INDEX
   HX - HEAT INDEX
  VSB - VISIBILITY
$$



USA.gov is the U.S. government's official web portal to all federal, state and local government web resources and services.